星链-34958 (STARLINK-34958)

导读

STARLINK-34958是美国于2025年8月18日发射的星链卫星,星链是美国太空探索技术公司打造的低轨卫星互联网星座项目,旨在为全球提供高速低延迟宽带互联网服务。该卫星入轨后将和其他星链卫星组网,进一步扩大星链星座的覆盖范围与服务能力,推进全球卫星互联网布局。

Basic Information
目录编号:
65237
目录名称:
STARLINK-34958
国际标识:
2025-179C
轨道中心:
EARTH
卫星名称:
星链-34958
卫星全名:
星链-34958 (STARLINK-34958)
卫星状态:
在轨 (已飞行382 天)
发射日期:
2025-08-18 UTC
国别 :
美国 (US)
星等 :
--
Orbit Information
数据来源 国际轨道数据
星历时间: 2026-09-02T17:13:10+0800
1天前
查看轨道信息
半长轴: 6843.676km
偏心率: 0.0001179
轨道倾角: 97.283°
近地点辐角 106.487°
升交点赤经 284.923°
平近点角 253.650°
近地点: 464.732km
远地点: 466.346km
周期: 93.906分钟
每日圈数: 15.334465
Detailed Information
固有亮度:
5
最大亮度:
2.5
卫星平台:
Starlink V1.0
覆盖范围:
全球
运营商:
太空探索技术公司
运营商所在国:
美国
制造商(研发单位):
太空探索技术公司
制造商所在国:
美国
使用方式:
暂无
Satellite Introduction
Starlink 计划是 SpaceX 推出的全球卫星互联网项目,通过发射低轨道卫星,为全球尤其是偏远地区提供高速、低延迟的互联网服务。自 2019 年起,Starlink 已部署数千颗卫星,旨在缩小全球数字鸿沟,推动互联网普及。该项目还为军事、航空等行业提供通信支持,带来广泛经济效益。
2D Orbit Map
3D Orbit Map
Orbit Altitude Analysis Chart
Orbit Inclination Analysis Chart
Orbit Comprehensive Analysis Chart
View Comprehensive Chart
Conjunction Data List
Event ID Objects TCA Miss Dist (km) Collision Risk Probability Collision Risk Index (CRI) Action
CDM_260903-150904-836806-523721
2026-09-03T
15:09:09+0000
1.287 km
极远距离
7.237749E-6 低风险 0.52
CDM_260827-192705-328306-523721
2026-08-27T
19:27:44+0000
2.579 km
极远距离
1.63914E-6 低风险 0.39
CDM_260827-184405-401206-523721
2026-08-27T
18:44:19+0000
2.836 km
极远距离
1.380338E-6 低风险 0.38